Regional Weather Roundup
Issued by NWS

Home | Current Version | Previous Version | Graphics & Text | Print | Product List | Glossary On
Versions: 1 2 3 4 5 6 7 8 9 10 11 12 13 14 15 16 17 18 19 20 21 22 23 24 25 26 27 28 29 30 31 32 33 34 35 36 37 38 39 40 41 42 43 44 45 46 47 48 49 50
000
ASUS43 KBIS 281110
RWRND

NORTH DAKOTA REGIONAL WEATHER ROUNDUP
NATIONAL WEATHER SERVICE BISMARCK ND
600 AM CDT THU JUL 28 2016

NOTE: "FAIR" INDICATES FEW OR NO CLOUDS BELOW 12,000 FEET WITH NO
SIGNIFICANT WEATHER AND/OR OBSTRUCTIONS TO VISIBILITY.


NDZ001>003-009>011-017-281200-
NORTHWEST NORTH DAKOTA

CITY           SKY/WX    TMP DP  RH WIND       PRES   REMARKS
WILLISTON      CLOUDY    61  58  90 NE6       30.14F
MINOT          CLOUDY    62  57  83 N3        30.16R
MINOT AFB      DRIZZLE   59  56  89 E5        30.15S
$$

NDZ018>021-031>035-040>046-281200-
SOUTHWEST NORTH DAKOTA

CITY           SKY/WX    TMP DP  RH WIND       PRES   REMARKS
BISMARCK       CLOUDY    63  59  87 NE7       30.14S
DICKINSON      LGT RAIN  60  60 100 W7        30.13R FOG
GARRISON         N/A     61  59  93 CALM      30.15R
HETTINGER ARPT CLOUDY    58  56  93 CALM      30.14R
$$

NDZ004>008-012>016-024-026-027-054-281200-
NORTHEAST NORTH DAKOTA

CITY           SKY/WX    TMP DP  RH WIND       PRES   REMARKS
GRAND FORKS    MOCLDY    60  56  86 N8        30.10R
GRND FRKS AFB  CLOUDY    57  56  94 N8        30.11R
DEVILS LAKE    PTCLDY    54  52  93 N6        30.16R
$$

NDZ022-023-025-028>030-036>039-047>053-281200-
SOUTHEAST NORTH DAKOTA

CITY           SKY/WX    TMP DP  RH WIND       PRES   REMARKS
FARGO          CLOUDY    62  60  93 N6        30.06R
JAMESTOWN      CLOUDY    56  54  93 NW6       30.12R
$$





USA.gov is the U.S. government's official web portal to all federal, state and local government web resources and services.